Date_Time,Julian_Date,Latitude,Longitude,Instrument_Depth,U,V,Speed,Direction
(yyyy-mm-dd hh:mn:ss UTC),(JD),(+ deg. North),(+ deg. East),(m),(cm/s),(cm/s),(cm/s),(deg True)
1982-03-14 18:30:00 UTC,2445043.270833,29.6650,-93.4789,0073,-9.96,8.36,13.0000,310.0000
1982-03-14 19:00:00 UTC,2445043.291667,29.6650,-93.4789,0073,-6.56,7.55,10.0000,319.0000
1982-03-14 19:30:00 UTC,2445043.312500,29.6650,-93.4789,0073,-5.20,4.68,7.0000,312.0000
1982-03-14 20:00:00 UTC,2445043.333333,29.6650,-93.4789,0073,-5.14,3.09,6.0000,301.0000
1982-03-14 20:30:00 UTC,2445043.354167,29.6650,-93.4789,0073,-4.96,0.61,5.0000,277.0000
1982-03-14 21:00:00 UTC,2445043.375000,29.6650,-93.4789,0073,-10.97,-0.77,11.0000,266.0000
1982-03-14 21:30:00 UTC,2445043.395833,29.6650,-93.4789,0073,-17.00,-0.30,17.0000,269.0000
1982-03-14 22:00:00 UTC,2445043.416667,29.6650,-93.4789,0073,-20.00,-0.00,20.0000,270.0000
1982-03-14 22:30:00 UTC,2445043.437500,29.6650,-93.4789,0073,-18.00,-0.31,18.0000,269.0000
1982-03-14 23:00:00 UTC,2445043.458333,29.6650,-93.4789,0073,-14.00,-0.24,14.0000,269.0000
1982-03-14 23:30:00 UTC,2445043.479167,29.6650,-93.4789,0073,-15.98,-0.84,16.0000,267.0000
1982-03-15 00:00:00 UTC,2445043.500000,29.6650,-93.4789,0073,-20.92,-1.83,21.0000,265.0000
1982-03-15 00:30:00 UTC,2445043.520833,29.6650,-93.4789,0073,-19.85,-2.44,20.0000,263.0000
1982-03-15 01:00:00 UTC,2445043.541667,29.6650,-93.4789,0073,-16.74,-2.95,17.0000,260.0000
1982-03-15 01:30:00 UTC,2445043.562500,29.6650,-93.4789,0073,-15.76,-2.78,16.0000,260.0000
1982-03-15 02:00:00 UTC,2445043.583333,29.6650,-93.4789,0073,-16.79,-2.66,17.0000,261.0000
1982-03-15 02:30:00 UTC,2445043.604167,29.6650,-93.4789,0073,-15.80,-2.50,16.0000,261.0000
1982-03-15 03:00:00 UTC,2445043.625000,29.6650,-93.4789,0073,-16.74,-2.95,17.0000,260.0000
1982-03-15 03:30:00 UTC,2445043.645833,29.6650,-93.4789,0073,-15.65,-3.33,16.0000,258.0000
1982-03-15 04:00:00 UTC,2445043.666667,29.6650,-93.4789,0073,-9.95,-1.05,10.0000,264.0000
1982-03-15 04:30:00 UTC,2445043.687500,29.6650,-93.4789,0073,-5.96,0.73,6.0000,277.0000
1982-03-15 05:00:00 UTC,2445043.708333,29.6650,-93.4789,0073,-11.00,-0.00,11.0000,270.0000
1982-03-15 05:30:00 UTC,2445043.729167,29.6650,-93.4789,0073,-17.00,-0.00,17.0000,270.0000
1982-03-15 06:00:00 UTC,2445043.750000,29.6650,-93.4789,0073,-16.87,2.07,17.0000,277.0000
1982-03-15 06:30:00 UTC,2445043.770833,29.6650,-93.4789,0073,-17.54,4.05,18.0000,283.0000
1982-03-15 07:00:00 UTC,2445043.791667,29.6650,-93.4789,0073,-18.35,4.92,19.0000,285.0000
1982-03-15 07:30:00 UTC,2445043.812500,29.6650,-93.4789,0073,-19.02,6.18,20.0000,288.0000
1982-03-15 08:00:00 UTC,2445043.833333,29.6650,-93.4789,0073,-18.54,7.49,20.0000,292.0000
1982-03-15 08:30:00 UTC,2445043.854167,29.6650,-93.4789,0073,-18.13,8.45,20.0000,295.0000
1982-03-15 09:00:00 UTC,2445043.875000,29.6650,-93.4789,0073,-17.36,7.73,19.0000,294.0000
1982-03-15 09:30:00 UTC,2445043.895833,29.6650,-93.4789,0073,-16.44,7.32,18.0000,294.0000
1982-03-15 10:00:00 UTC,2445043.916667,29.6650,-93.4789,0073,-16.04,8.17,18.0000,297.0000
1982-03-15 10:30:00 UTC,2445043.937500,29.6650,-93.4789,0073,-15.74,8.73,18.0000,299.0000
1982-03-15 11:00:00 UTC,2445043.958333,29.6650,-93.4789,0073,-16.04,8.17,18.0000,297.0000
1982-03-15 11:30:00 UTC,2445043.979167,29.6650,-93.4789,0073,-13.12,7.27,15.0000,299.0000
1982-03-15 12:00:00 UTC,2445044.000000,29.6650,-93.4789,0073,-11.18,8.43,14.0000,307.0000
1982-03-15 12:30:00 UTC,2445044.020833,29.6650,-93.4789,0073,-9.73,10.07,14.0000,316.0000
1982-03-15 13:00:00 UTC,2445044.041667,29.6650,-93.4789,0073,-7.22,9.58,12.0000,323.0000
1982-03-15 13:30:00 UTC,2445044.062500,29.6650,-93.4789,0073,-4.64,7.71,9.0000,329.0000
1982-03-15 14:00:00 UTC,2445044.083333,29.6650,-93.4789,0073,-3.00,5.20,6.0000,330.0000
1982-03-15 14:30:00 UTC,2445044.104167,29.6650,-93.4789,0073,-1.68,2.49,3.0000,326.0000
1982-03-15 15:00:00 UTC,2445044.125000,29.6650,-93.4789,0073,-0.00,0.00,0.0000,312.0000
1982-03-15 15:30:00 UTC,2445044.145833,29.6650,-93.4789,0073,0.00,0.00,0.0000,26.0000
1982-03-15 16:00:00 UTC,2445044.166667,29.6650,-93.4789,0073,-0.00,-0.00,0.0000,230.0000
1982-03-15 16:30:00 UTC,2445044.187500,29.6650,-93.4789,0073,-1.99,-0.24,2.0000,263.0000
1982-03-15 17:00:00 UTC,2445044.208333,29.6650,-93.4789,0073,-3.99,-0.28,4.0000,266.0000
1982-03-15 17:30:00 UTC,2445044.229167,29.6650,-93.4789,0073,-2.74,-1.22,3.0000,246.0000
1982-03-15 18:00:00 UTC,2445044.250000,29.6650,-93.4789,0073,0.07,-2.00,2.0000,178.0000
1982-03-15 18:30:00 UTC,2445044.270833,29.6650,-93.4789,0073,0.59,-0.81,1.0000,144.0000
1982-03-15 19:00:00 UTC,2445044.291667,29.6650,-93.4789,0073,1.03,1.71,2.0000,31.0000
1982-03-15 19:30:00 UTC,2445044.312500,29.6650,-93.4789,0073,1.95,4.60,5.0000,23.0000
1982-03-15 20:00:00 UTC,2445044.333333,29.6650,-93.4789,0073,1.65,5.77,6.0000,16.0000
1982-03-15 20:30:00 UTC,2445044.354167,29.6650,-93.4789,0073,1.63,3.65,4.0000,24.0000
1982-03-15 21:00:00 UTC,2445044.375000,29.6650,-93.4789,0073,3.63,1.69,4.0000,65.0000
1982-03-15 21:30:00 UTC,2445044.395833,29.6650,-93.4789,0073,4.87,1.12,5.0000,77.0000
1982-03-15 22:00:00 UTC,2445044.416667,29.6650,-93.4789,0073,4.91,0.95,5.0000,79.0000
1982-03-15 22:30:00 UTC,2445044.437500,29.6650,-93.4789,0073,4.95,-0.70,5.0000,98.0000
1982-03-15 23:00:00 UTC,2445044.458333,29.6650,-93.4789,0073,5.30,-2.82,6.0000,118.0000
1982-03-15 23:30:00 UTC,2445044.479167,29.6650,-93.4789,0073,4.91,-3.44,6.0000,125.0000
1982-03-16 00:00:00 UTC,2445044.500000,29.6650,-93.4789,0073,3.83,-3.21,5.0000,130.0000
1982-03-16 00:30:00 UTC,2445044.520833,29.6650,-93.4789,0073,3.28,-2.29,4.0000,125.0000
1982-03-16 01:00:00 UTC,2445044.541667,29.6650,-93.4789,0073,3.94,-0.69,4.0000,100.0000
1982-03-16 01:30:00 UTC,2445044.562500,29.6650,-93.4789,0073,5.00,0.00,5.0000,90.0000
1982-03-16 02:00:00 UTC,2445044.583333,29.6650,-93.4789,0073,5.71,-1.85,6.0000,108.0000
1982-03-16 02:30:00 UTC,2445044.604167,29.6650,-93.4789,0073,6.47,-4.70,8.0000,126.0000
1982-03-16 03:00:00 UTC,2445044.625000,29.6650,-93.4789,0073,7.43,-6.69,10.0000,132.0000
1982-03-16 03:30:00 UTC,2445044.645833,29.6650,-93.4789,0073,7.78,-7.78,11.0000,135.0000
1982-03-16 04:00:00 UTC,2445044.666667,29.6650,-93.4789,0073,8.03,-8.92,12.0000,138.0000
1982-03-16 04:30:00 UTC,2445044.687500,29.6650,-93.4789,0073,8.36,-9.96,13.0000,140.0000
1982-03-16 05:00:00 UTC,2445044.708333,29.6650,-93.4789,0073,8.18,-8.78,12.0000,137.0000
1982-03-16 05:30:00 UTC,2445044.729167,29.6650,-93.4789,0073,8.09,-5.88,10.0000,126.0000
1982-03-16 06:00:00 UTC,2445044.750000,29.6650,-93.4789,0073,5.87,-1.25,6.0000,102.0000
1982-03-16 06:30:00 UTC,2445044.770833,29.6650,-93.4789,0073,3.68,1.56,4.0000,67.0000
1982-03-16 07:00:00 UTC,2445044.791667,29.6650,-93.4789,0073,2.57,1.55,3.0000,59.0000
1982-03-16 07:30:00 UTC,2445044.812500,29.6650,-93.4789,0073,1.80,0.88,2.0000,64.0000
1982-03-16 08:00:00 UTC,2445044.833333,29.6650,-93.4789,0073,-1.85,2.36,3.0000,322.0000
1982-03-16 08:30:00 UTC,2445044.854167,29.6650,-93.4789,0073,-8.40,3.23,9.0000,291.0000
1982-03-16 09:00:00 UTC,2445044.875000,29.6650,-93.4789,0073,-12.89,5.47,14.0000,293.0000
1982-03-16 09:30:00 UTC,2445044.895833,29.6650,-93.4789,0073,-12.99,7.50,15.0000,300.0000
1982-03-16 10:00:00 UTC,2445044.916667,29.6650,-93.4789,0073,-10.24,8.00,13.0000,308.0000
1982-03-16 10:30:00 UTC,2445044.937500,29.6650,-93.4789,0073,-5.50,9.53,11.0000,330.0000
1982-03-16 11:00:00 UTC,2445044.958333,29.6650,-93.4789,0073,-1.67,11.88,12.0000,352.0000
1982-03-16 11:30:00 UTC,2445044.979167,29.6650,-93.4789,0073,-0.24,14.00,14.0000,359.0000
1982-03-16 12:00:00 UTC,2445045.000000,29.6650,-93.4789,0073,1.67,15.91,16.0000,6.0000
1982-03-16 12:30:00 UTC,2445045.020833,29.6650,-93.4789,0073,2.91,13.69,14.0000,12.0000
1982-03-16 13:00:00 UTC,2445045.041667,29.6650,-93.4789,0073,2.29,10.76,11.0000,12.0000
1982-03-16 13:30:00 UTC,2445045.062500,29.6650,-93.4789,0073,0.28,8.00,8.0000,2.0000
1982-03-16 14:00:00 UTC,2445045.083333,29.6650,-93.4789,0073,-0.85,6.95,7.0000,353.0000
1982-03-16 14:30:00 UTC,2445045.104167,29.6650,-93.4789,0073,-0.12,7.00,7.0000,359.0000
1982-03-16 15:00:00 UTC,2445045.125000,29.6650,-93.4789,0073,2.16,6.66,7.0000,18.0000
1982-03-16 15:30:00 UTC,2445045.145833,29.6650,-93.4789,0073,4.02,5.73,7.0000,35.0000
1982-03-16 16:00:00 UTC,2445045.166667,29.6650,-93.4789,0073,5.04,4.86,7.0000,46.0000
1982-03-16 16:30:00 UTC,2445045.187500,29.6650,-93.4789,0073,6.06,3.50,7.0000,60.0000
1982-03-16 17:00:00 UTC,2445045.208333,29.6650,-93.4789,0073,7.96,0.84,8.0000,84.0000
1982-03-16 17:30:00 UTC,2445045.229167,29.6650,-93.4789,0073,9.85,-1.74,10.0000,100.0000
1982-03-16 18:00:00 UTC,2445045.250000,29.6650,-93.4789,0073,11.48,-3.51,12.0000,107.0000
1982-03-16 18:30:00 UTC,2445045.270833,29.6650,-93.4789,0073,12.89,-5.47,14.0000,113.0000
1982-03-16 19:00:00 UTC,2445045.291667,29.6650,-93.4789,0073,13.12,-7.27,15.0000,119.0000
1982-03-16 19:30:00 UTC,2445045.312500,29.6650,-93.4789,0073,12.58,-8.17,15.0000,123.0000
1982-03-16 20:00:00 UTC,2445045.333333,29.6650,-93.4789,0073,11.66,-9.44,15.0000,129.0000
1982-03-16 20:30:00 UTC,2445045.354167,29.6650,-93.4789,0073,10.04,-11.15,15.0000,138.0000
1982-03-16 21:00:00 UTC,2445045.375000,29.6650,-93.4789,0073,8.95,-13.26,16.0000,146.0000
1982-03-16 21:30:00 UTC,2445045.395833,29.6650,-93.4789,0073,9.01,-14.42,17.0000,148.0000
1982-03-16 22:00:00 UTC,2445045.416667,29.6650,-93.4789,0073,10.07,-14.92,18.0000,146.0000
1982-03-16 22:30:00 UTC,2445045.437500,29.6650,-93.4789,0073,10.90,-15.56,19.0000,145.0000
1982-03-16 23:00:00 UTC,2445045.458333,29.6650,-93.4789,0073,10.35,-15.93,19.0000,147.0000
1982-03-16 23:30:00 UTC,2445045.479167,29.6650,-93.4789,0073,9.27,-15.43,18.0000,149.0000
1982-03-17 00:00:00 UTC,2445045.500000,29.6650,-93.4789,0073,8.73,-15.74,18.0000,151.0000
1982-03-17 00:30:00 UTC,2445045.520833,29.6650,-93.4789,0073,7.89,-16.18,18.0000,154.0000
1982-03-17 01:00:00 UTC,2445045.541667,29.6650,-93.4789,0073,6.91,-15.53,17.0000,156.0000
1982-03-17 01:30:00 UTC,2445045.562500,29.6650,-93.4789,0073,7.18,-15.41,17.0000,155.0000
1982-03-17 02:00:00 UTC,2445045.583333,29.6650,-93.4789,0073,8.00,-13.86,16.0000,150.0000
1982-03-17 02:30:00 UTC,2445045.604167,29.6650,-93.4789,0073,9.18,-13.11,16.0000,145.0000
1982-03-17 03:00:00 UTC,2445045.625000,29.6650,-93.4789,0073,9.63,-12.78,16.0000,143.0000
1982-03-17 03:30:00 UTC,2445045.645833,29.6650,-93.4789,0073,9.63,-12.78,16.0000,143.0000
1982-03-17 04:00:00 UTC,2445045.666667,29.6650,-93.4789,0073,9.23,-11.82,15.0000,142.0000
1982-03-17 04:30:00 UTC,2445045.687500,29.6650,-93.4789,0073,9.18,-10.57,14.0000,139.0000
1982-03-17 05:00:00 UTC,2445045.708333,29.6650,-93.4789,0073,8.03,-8.92,12.0000,138.0000
1982-03-17 05:30:00 UTC,2445045.729167,29.6650,-93.4789,0073,7.36,-8.17,11.0000,138.0000
1982-03-17 06:00:00 UTC,2445045.750000,29.6650,-93.4789,0073,7.91,-7.64,11.0000,134.0000
1982-03-17 06:30:00 UTC,2445045.770833,29.6650,-93.4789,0073,7.64,-7.91,11.0000,136.0000
1982-03-17 07:00:00 UTC,2445045.791667,29.6650,-93.4789,0073,5.03,-7.46,9.0000,146.0000
1982-03-17 07:30:00 UTC,2445045.812500,29.6650,-93.4789,0073,2.05,-6.69,7.0000,163.0000
1982-03-17 08:00:00 UTC,2445045.833333,29.6650,-93.4789,0073,-1.55,-5.80,6.0000,195.0000
1982-03-17 08:30:00 UTC,2445045.854167,29.6650,-93.4789,0073,-8.22,-3.66,9.0000,246.0000
1982-03-17 09:00:00 UTC,2445045.875000,29.6650,-93.4789,0073,-15.88,-1.95,16.0000,263.0000
1982-03-17 09:30:00 UTC,2445045.895833,29.6650,-93.4789,0073,-19.89,-2.09,20.0000,264.0000
1982-03-17 10:00:00 UTC,2445045.916667,29.6650,-93.4789,0073,-20.97,-1.10,21.0000,267.0000
1982-03-17 10:30:00 UTC,2445045.937500,29.6650,-93.4789,0073,-22.94,1.60,23.0000,274.0000
1982-03-17 11:00:00 UTC,2445045.958333,29.6650,-93.4789,0073,-25.81,3.17,26.0000,277.0000
1982-03-17 11:30:00 UTC,2445045.979167,29.6650,-93.4789,0073,-26.80,3.29,27.0000,277.0000
1982-03-17 12:00:00 UTC,2445046.000000,29.6650,-93.4789,0073,-27.89,2.44,28.0000,275.0000
1982-03-17 12:30:00 UTC,2445046.020833,29.6650,-93.4789,0073,-26.93,1.88,27.0000,274.0000
1982-03-17 13:00:00 UTC,2445046.041667,29.6650,-93.4789,0073,-27.89,2.44,28.0000,275.0000
1982-03-17 13:30:00 UTC,2445046.062500,29.6650,-93.4789,0073,-26.67,4.22,27.0000,279.0000
1982-03-17 14:00:00 UTC,2445046.083333,29.6650,-93.4789,0073,-23.07,6.62,24.0000,286.0000
1982-03-17 14:30:00 UTC,2445046.104167,29.6650,-93.4789,0073,-20.40,8.24,22.0000,292.0000
1982-03-17 15:00:00 UTC,2445046.125000,29.6650,-93.4789,0073,-17.36,7.73,19.0000,294.0000
1982-03-17 15:30:00 UTC,2445046.145833,29.6650,-93.4789,0073,-14.26,7.26,16.0000,297.0000
1982-03-17 16:00:00 UTC,2445046.166667,29.6650,-93.4789,0073,-12.47,6.36,14.0000,297.0000
1982-03-17 16:30:00 UTC,2445046.187500,29.6650,-93.4789,0073,-12.14,4.66,13.0000,291.0000
1982-03-17 17:00:00 UTC,2445046.208333,29.6650,-93.4789,0073,-11.41,3.71,12.0000,288.0000
1982-03-17 17:30:00 UTC,2445046.229167,29.6650,-93.4789,0073,-11.28,4.10,12.0000,290.0000
1982-03-17 18:00:00 UTC,2445046.250000,29.6650,-93.4789,0073,-10.27,3.94,11.0000,291.0000
1982-03-17 18:30:00 UTC,2445046.270833,29.6650,-93.4789,0073,-10.05,4.47,11.0000,294.0000
1982-03-17 19:00:00 UTC,2445046.291667,29.6650,-93.4789,0073,-10.50,5.82,12.0000,299.0000
1982-03-17 19:30:00 UTC,2445046.312500,29.6650,-93.4789,0073,-9.23,5.99,11.0000,303.0000
1982-03-17 20:00:00 UTC,2445046.333333,29.6650,-93.4789,0073,-8.19,5.74,10.0000,305.0000
1982-03-17 20:30:00 UTC,2445046.354167,29.6650,-93.4789,0073,-6.71,4.36,8.0000,303.0000
1982-03-17 21:00:00 UTC,2445046.375000,29.6650,-93.4789,0073,-6.71,4.36,8.0000,303.0000
1982-03-17 21:30:00 UTC,2445046.395833,29.6650,-93.4789,0073,-6.47,4.70,8.0000,306.0000
1982-03-17 22:00:00 UTC,2445046.416667,29.6650,-93.4789,0073,-7.09,5.54,9.0000,308.0000
1982-03-17 22:30:00 UTC,2445046.437500,29.6650,-93.4789,0073,-6.39,4.81,8.0000,307.0000
1982-03-17 23:00:00 UTC,2445046.458333,29.6650,-93.4789,0073,-5.20,3.00,6.0000,300.0000
1982-03-17 23:30:00 UTC,2445046.479167,29.6650,-93.4789,0073,-5.67,1.95,6.0000,289.0000
1982-03-18 00:00:00 UTC,2445046.500000,29.6650,-93.4789,0073,-5.93,0.94,6.0000,279.0000
1982-03-18 00:30:00 UTC,2445046.520833,29.6650,-93.4789,0073,-6.00,-0.10,6.0000,269.0000
1982-03-18 01:00:00 UTC,2445046.541667,29.6650,-93.4789,0073,-6.95,-0.85,7.0000,263.0000
1982-03-18 01:30:00 UTC,2445046.562500,29.6650,-93.4789,0073,-7.79,-1.80,8.0000,257.0000
1982-03-18 02:00:00 UTC,2445046.583333,29.6650,-93.4789,0073,-7.25,-3.38,8.0000,245.0000
1982-03-18 02:30:00 UTC,2445046.604167,29.6650,-93.4789,0073,-7.99,-6.02,10.0000,233.0000
1982-03-18 03:00:00 UTC,2445046.625000,29.6650,-93.4789,0073,-9.66,-8.70,13.0000,228.0000
1982-03-18 03:30:00 UTC,2445046.645833,29.6650,-93.4789,0073,-10.24,-9.55,14.0000,227.0000
1982-03-18 04:00:00 UTC,2445046.666667,29.6650,-93.4789,0073,-11.32,-9.84,15.0000,229.0000
1982-03-18 04:30:00 UTC,2445046.687500,29.6650,-93.4789,0073,-11.03,-8.62,14.0000,232.0000
1982-03-18 05:00:00 UTC,2445046.708333,29.6650,-93.4789,0073,-10.24,-8.00,13.0000,232.0000
1982-03-18 05:30:00 UTC,2445046.729167,29.6650,-93.4789,0073,-9.83,-6.88,12.0000,235.0000
1982-03-18 06:00:00 UTC,2445046.750000,29.6650,-93.4789,0073,-7.95,-4.23,9.0000,242.0000
1982-03-18 06:30:00 UTC,2445046.770833,29.6650,-93.4789,0073,-6.18,-3.29,7.0000,242.0000
1982-03-18 07:00:00 UTC,2445046.791667,29.6650,-93.4789,0073,-6.22,-5.03,8.0000,231.0000
1982-03-18 07:30:00 UTC,2445046.812500,29.6650,-93.4789,0073,-7.19,-6.95,10.0000,226.0000
1982-03-18 08:00:00 UTC,2445046.833333,29.6650,-93.4789,0073,-5.79,-6.89,9.0000,220.0000
1982-03-18 08:30:00 UTC,2445046.854167,29.6650,-93.4789,0073,-3.39,-6.12,7.0000,209.0000
1982-03-18 09:00:00 UTC,2445046.875000,29.6650,-93.4789,0073,-1.12,-4.87,5.0000,193.0000
1982-03-18 09:30:00 UTC,2445046.895833,29.6650,-93.4789,0073,0.47,-2.96,3.0000,171.0000
1982-03-18 10:00:00 UTC,2445046.916667,29.6650,-93.4789,0073,0.91,-1.78,2.0000,153.0000
1982-03-18 10:30:00 UTC,2445046.937500,29.6650,-93.4789,0073,0.75,-1.85,2.0000,158.0000
1982-03-18 11:00:00 UTC,2445046.958333,29.6650,-93.4789,0073,0.55,-1.92,2.0000,164.0000
1982-03-18 11:30:00 UTC,2445046.979167,29.6650,-93.4789,0073,-0.72,-1.87,2.0000,201.0000
1982-03-18 12:00:00 UTC,2445047.000000,29.6650,-93.4789,0073,-2.54,-1.59,3.0000,238.0000
1982-03-18 12:30:00 UTC,2445047.020833,29.6650,-93.4789,0073,-3.60,-1.75,4.0000,244.0000
1982-03-18 13:00:00 UTC,2445047.041667,29.6650,-93.4789,0073,-4.53,-2.11,5.0000,245.0000
1982-03-18 13:30:00 UTC,2445047.062500,29.6650,-93.4789,0073,-8.73,-2.18,9.0000,256.0000
1982-03-18 14:00:00 UTC,2445047.083333,29.6650,-93.4789,0073,-13.99,-0.49,14.0000,268.0000
1982-03-18 14:30:00 UTC,2445047.104167,29.6650,-93.4789,0073,-18.93,1.66,19.0000,275.0000
1982-03-18 15:00:00 UTC,2445047.125000,29.6650,-93.4789,0073,-22.78,3.20,23.0000,278.0000
1982-03-18 15:30:00 UTC,2445047.145833,29.6650,-93.4789,0073,-22.50,4.78,23.0000,282.0000
1982-03-18 16:00:00 UTC,2445047.166667,29.6650,-93.4789,0073,-18.91,6.51,20.0000,289.0000
1982-03-18 16:30:00 UTC,2445047.187500,29.6650,-93.4789,0073,-15.76,6.37,17.0000,292.0000
1982-03-18 17:00:00 UTC,2445047.208333,29.6650,-93.4789,0073,-14.94,5.73,16.0000,291.0000
1982-03-18 17:30:00 UTC,2445047.229167,29.6650,-93.4789,0073,-13.31,4.33,14.0000,288.0000
1982-03-18 18:00:00 UTC,2445047.250000,29.6650,-93.4789,0073,-11.59,3.11,12.0000,285.0000
1982-03-18 18:30:00 UTC,2445047.270833,29.6650,-93.4789,0073,-8.80,1.87,9.0000,282.0000
1982-03-18 19:00:00 UTC,2445047.291667,29.6650,-93.4789,0073,-6.93,0.97,7.0000,278.0000
1982-03-18 19:30:00 UTC,2445047.312500,29.6650,-93.4789,0073,-5.00,-0.00,5.0000,270.0000
1982-03-18 20:00:00 UTC,2445047.333333,29.6650,-93.4789,0073,-3.88,-0.97,4.0000,256.0000
1982-03-18 20:30:00 UTC,2445047.354167,29.6650,-93.4789,0073,-2.65,-1.41,3.0000,242.0000
1982-03-18 21:00:00 UTC,2445047.375000,29.6650,-93.4789,0073,-2.12,-2.12,3.0000,225.0000
1982-03-18 21:30:00 UTC,2445047.395833,29.6650,-93.4789,0073,-0.72,-1.87,2.0000,201.0000
1982-03-18 22:00:00 UTC,2445047.416667,29.6650,-93.4789,0073,0.78,-0.63,1.0000,129.0000
1982-03-18 22:30:00 UTC,2445047.437500,29.6650,-93.4789,0073,2.00,0.14,2.0000,86.0000
1982-03-18 23:00:00 UTC,2445047.458333,29.6650,-93.4789,0073,0.95,0.33,1.0000,71.0000
1982-03-18 23:30:00 UTC,2445047.479167,29.6650,-93.4789,0073,0.19,-0.98,1.0000,169.0000
1982-03-19 00:00:00 UTC,2445047.500000,29.6650,-93.4789,0073,-0.10,-3.00,3.0000,182.0000
1982-03-19 00:30:00 UTC,2445047.520833,29.6650,-93.4789,0073,-0.35,-4.99,5.0000,184.0000
1982-03-19 01:00:00 UTC,2445047.541667,29.6650,-93.4789,0073,-1.46,-6.85,7.0000,192.0000
1982-03-19 01:30:00 UTC,2445047.562500,29.6650,-93.4789,0073,-2.60,-7.56,8.0000,199.0000
1982-03-19 02:00:00 UTC,2445047.583333,29.6650,-93.4789,0073,-4.54,-8.91,10.0000,207.0000
1982-03-19 02:30:00 UTC,2445047.604167,29.6650,-93.4789,0073,-8.18,-10.10,13.0000,219.0000
1982-03-19 03:00:00 UTC,2445047.625000,29.6650,-93.4789,0073,-12.95,-12.50,18.0000,226.0000
1982-03-19 03:30:00 UTC,2445047.645833,29.6650,-93.4789,0073,-16.09,-13.50,21.0000,230.0000
1982-03-19 04:00:00 UTC,2445047.666667,29.6650,-93.4789,0073,-16.99,-12.34,21.0000,234.0000
1982-03-19 04:30:00 UTC,2445047.687500,29.6650,-93.4789,0073,-14.56,-10.58,18.0000,234.0000
1982-03-19 05:00:00 UTC,2445047.708333,29.6650,-93.4789,0073,-12.26,-10.28,16.0000,230.0000
1982-03-19 05:30:00 UTC,2445047.729167,29.6650,-93.4789,0073,-12.61,-9.85,16.0000,232.0000
1982-03-19 06:00:00 UTC,2445047.750000,29.6650,-93.4789,0073,-14.13,-7.51,16.0000,242.0000
1982-03-19 06:30:00 UTC,2445047.770833,29.6650,-93.4789,0073,-17.22,-8.03,19.0000,245.0000
1982-03-19 07:00:00 UTC,2445047.791667,29.6650,-93.4789,0073,-17.14,-10.30,20.0000,239.0000
1982-03-19 07:30:00 UTC,2445047.812500,29.6650,-93.4789,0073,-13.40,-10.47,17.0000,232.0000
1982-03-19 08:00:00 UTC,2445047.833333,29.6650,-93.4789,0073,-10.88,-8.81,14.0000,231.0000
1982-03-19 08:30:00 UTC,2445047.854167,29.6650,-93.4789,0073,-9.95,-6.71,12.0000,236.0000
1982-03-19 09:00:00 UTC,2445047.875000,29.6650,-93.4789,0073,-8.29,-5.59,10.0000,236.0000
1982-03-19 09:30:00 UTC,2445047.895833,29.6650,-93.4789,0073,-6.99,-5.66,9.0000,231.0000
1982-03-19 10:00:00 UTC,2445047.916667,29.6650,-93.4789,0073,-7.55,-4.90,9.0000,237.0000
1982-03-19 10:30:00 UTC,2445047.937500,29.6650,-93.4789,0073,-8.40,-3.23,9.0000,249.0000
1982-03-19 11:00:00 UTC,2445047.958333,29.6650,-93.4789,0073,-8.61,-2.63,9.0000,253.0000
1982-03-19 11:30:00 UTC,2445047.979167,29.6650,-93.4789,0073,-9.61,-2.76,10.0000,254.0000
1982-03-19 12:00:00 UTC,2445048.000000,29.6650,-93.4789,0073,-10.72,-2.47,11.0000,257.0000
1982-03-19 12:30:00 UTC,2445048.020833,29.6650,-93.4789,0073,-13.79,-2.43,14.0000,260.0000
1982-03-19 13:00:00 UTC,2445048.041667,29.6650,-93.4789,0073,-18.00,-0.31,18.0000,269.0000
1982-03-19 13:30:00 UTC,2445048.062500,29.6650,-93.4789,0073,-17.85,6.50,19.0000,290.0000
1982-03-19 14:00:00 UTC,2445048.083333,29.6650,-93.4789,0073,-15.54,12.59,20.0000,309.0000
1982-03-19 14:30:00 UTC,2445048.104167,29.6650,-93.4789,0073,-16.18,11.76,20.0000,306.0000
1982-03-19 15:00:00 UTC,2445048.125000,29.6650,-93.4789,0073,-17.98,8.77,20.0000,296.0000
1982-03-19 15:30:00 UTC,2445048.145833,29.6650,-93.4789,0073,-17.74,6.81,19.0000,291.0000
1982-03-19 16:00:00 UTC,2445048.166667,29.6650,-93.4789,0073,-16.57,7.03,18.0000,293.0000
1982-03-19 16:30:00 UTC,2445048.187500,29.6650,-93.4789,0073,-13.57,8.48,16.0000,302.0000
1982-03-19 17:00:00 UTC,2445048.208333,29.6650,-93.4789,0073,-11.03,8.62,14.0000,308.0000
1982-03-19 17:30:00 UTC,2445048.229167,29.6650,-93.4789,0073,-8.17,7.36,11.0000,312.0000
1982-03-19 18:00:00 UTC,2445048.250000,29.6650,-93.4789,0073,-5.79,6.89,9.0000,320.0000
1982-03-19 18:30:00 UTC,2445048.270833,29.6650,-93.4789,0073,-6.36,6.36,9.0000,315.0000
1982-03-19 19:00:00 UTC,2445048.291667,29.6650,-93.4789,0073,-7.19,3.51,8.0000,296.0000
1982-03-19 19:30:00 UTC,2445048.312500,29.6650,-93.4789,0073,-7.76,1.94,8.0000,284.0000
1982-03-19 20:00:00 UTC,2445048.333333,29.6650,-93.4789,0073,-6.89,1.22,7.0000,280.0000
1982-03-19 20:30:00 UTC,2445048.354167,29.6650,-93.4789,0073,-5.85,1.35,6.0000,283.0000
1982-03-19 21:00:00 UTC,2445048.375000,29.6650,-93.4789,0073,-3.80,1.24,4.0000,288.0000
1982-03-19 21:30:00 UTC,2445048.395833,29.6650,-93.4789,0073,-2.84,0.98,3.0000,289.0000
1982-03-19 22:00:00 UTC,2445048.416667,29.6650,-93.4789,0073,-1.98,0.31,2.0000,279.0000
1982-03-19 22:30:00 UTC,2445048.437500,29.6650,-93.4789,0073,-2.00,-0.14,2.0000,266.0000
1982-03-19 23:00:00 UTC,2445048.458333,29.6650,-93.4789,0073,-1.85,-0.75,2.0000,248.0000
1982-03-19 23:30:00 UTC,2445048.479167,29.6650,-93.4789,0073,-2.49,-1.68,3.0000,236.0000
1982-03-20 00:00:00 UTC,2445048.500000,29.6650,-93.4789,0073,-3.39,-2.12,4.0000,238.0000
1982-03-20 00:30:00 UTC,2445048.520833,29.6650,-93.4789,0073,-4.70,-1.71,5.0000,250.0000
1982-03-20 01:00:00 UTC,2445048.541667,29.6650,-93.4789,0073,-5.85,-1.35,6.0000,257.0000
1982-03-20 01:30:00 UTC,2445048.562500,29.6650,-93.4789,0073,-6.66,-2.16,7.0000,252.0000
1982-03-20 02:00:00 UTC,2445048.583333,29.6650,-93.4789,0073,-8.40,-3.23,9.0000,249.0000
1982-03-20 02:30:00 UTC,2445048.604167,29.6650,-93.4789,0073,-9.40,-3.42,10.0000,250.0000
1982-03-20 03:00:00 UTC,2445048.625000,29.6650,-93.4789,0073,-10.46,-3.40,11.0000,252.0000
1982-03-20 03:30:00 UTC,2445048.645833,29.6650,-93.4789,0073,-11.35,-3.91,12.0000,251.0000
1982-03-20 04:00:00 UTC,2445048.666667,29.6650,-93.4789,0073,-10.60,-5.63,12.0000,242.0000
1982-03-20 04:30:00 UTC,2445048.687500,29.6650,-93.4789,0073,-10.24,-8.00,13.0000,232.0000
1982-03-20 05:00:00 UTC,2445048.708333,29.6650,-93.4789,0073,-10.24,-8.00,13.0000,232.0000
1982-03-20 05:30:00 UTC,2445048.729167,29.6650,-93.4789,0073,-11.26,-6.50,13.0000,240.0000
1982-03-20 06:00:00 UTC,2445048.750000,29.6650,-93.4789,0073,-11.68,-5.70,13.0000,244.0000
1982-03-20 06:30:00 UTC,2445048.770833,29.6650,-93.4789,0073,-12.89,-5.47,14.0000,247.0000
1982-03-20 07:00:00 UTC,2445048.791667,29.6650,-93.4789,0073,-14.00,-5.38,15.0000,249.0000